Вернуться в каталог

STARLINK-34013

АктивенСвязьVLEO
NORAD 63871·PAYLOAD·🇺🇸 United States

Запущен May 10, 2025 с Vandenberg Space Force Base

Loading…

Ближайшие Пролёты (ближайшие 24 часа)

TLE

СвежийSource: CelesTrak SupGP

Эпоха: Sep 14, 2026, 20:49 UTC

1 63871C 25094H   26257.86784722 -.00004373  00000+0 -15215-3 0  2573
2 63871  69.9991 115.7396 0003443 267.1767 100.8210 15.29577562    14

Отслеживайте STARLINK-34013 в реальном времени с AllMySat

Download on the App Store